Location: ?ern� Novina
(50.6762°N, 14.8696°E)
Time: 11:47:51
(UTC+00:00)

SPOT 3 Rocket - Pass Details

Date: 03 March 2021
Orbit: 778 x 795 km, 98.7° (Epoch: 13 April)

Event Time Altitude Azimuth Distance (km) Brightness Sun altitude
Exits shadow 18:38:02 33° 92° (E) 1,302 4.1 -18.5°
Maximum altitude 18:39:10 38° 64° (ENE) 1,209 4.1 -18.7°
Drops below altitude 10° 18:43:58 10° 358° (N) 2,376 6.2 -19.4°
Sets 18:46:26 0° 350° (N) 3,311 7.1 -19.8°
